Regional Weather Roundup
Issued by NWS

Home | Current Version | Previous Version | Text Only | Print | Product List | Glossary On
Versions: 1 2 3 4 5 6 7 8 9 10 11 12 13 14 15 16 17 18 19 20 21 22 23 24 25 26 27 28 29 30 31 32 33 34 35 36 37 38 39 40 41 42 43 44 45 46 47 48 49 50
000
ASUS44 KLUB 281810
RWRTX
WEST TEXAS WEATHER ROUNDUP
NATIONAL WEATHER SERVICE LUBBOCK TX
100 PM CDT TUE JUL 28 2015

NOTE: "FAIR" INDICATES FEW OR NO CLOUDS BELOW 12,000 FEET WITH NO
SIGNIFICANT WEATHER AND/OR OBSTRUCTIONS TO VISIBILITY.

TXZ004-006>008-010-012-014-016-OKZ002-281900-
TEXAS PANHANDLE/OKLAHOMA PANHANDLE

CITY           SKY/WX    TMP DP  RH WIND       PRES   REMARKS
AMARILLO       SUNNY     90  66  45 SW8       30.03R
BORGER         SUNNY     94  60  32 W9        29.98S
CANADIAN       SUNNY     97  64  33 W13G18    29.92S HX  98
DALHART        SUNNY     91  51  25 NE15G26   30.07S
DUMAS          SUNNY     88  55  32 N15       30.04R
GUYMON         SUNNY     88  56  33 N20G26    29.98R
HEREFORD       SUNNY     91  66  44 MISG      30.04S
PAMPA          SUNNY     91  61  36 W8        30.01F
PERRYTON       SUNNY     97  56  25 SW12      29.94S HX  96
$$

TXZ026-029-035-045-048-281900-
SOUTHERN PANHANDLE/SOUTH PLAINS/ROLLING PLAINS

CITY           SKY/WX    TMP DP  RH WIND       PRES   REMARKS
CHILDRESS      SUNNY     95  67  39 S10       29.93F HX  99
SEMINOLE       SUNNY     95  59  30 SE9       30.02S HX  95
LUBBOCK        SUNNY     92  64  39 S14       30.01S
PLAINVIEW      SUNNY     90  62  38 S10G16    30.01S
SNYDER         SUNNY     91  70  49 S13G28    29.99S HX  96
$$

TXZ052-054-060>062-072-078-127-140-154-169-281900-
PERMIAN BASIN/CONCHO VALLEY/BIG COUNTRY/EDWARDS PLATEAU

CITY           SKY/WX    TMP DP  RH WIND       PRES   REMARKS
ABILENE        SUNNY     93  70  46 S12       29.97F HX  99
BIG SPRING     SUNNY     92  63  37 SE12G17   30.00F
BRADY          SUNNY     93  66  40 S8        29.99S HX  96
BROWNWOOD      SUNNY     91  68  46 SW10      29.97F HX  95
JUNCTION       SUNNY     92  67  43 SE8       29.98F HX  95
MIDLAND        SUNNY     95  65  37 S10       29.99S HX  97
ODESSA         SUNNY     94  63  35 S12       30.00F HX  95
SAN ANGELO     SUNNY     96  65  35 S9G21     29.97F HX  98
SONORA           N/A    N/A N/A N/A MISG        N/A
SWEETWATER     SUNNY     92  67  43 S8G17     30.01F HX  95
WINK           SUNNY     98  58  26 S12       29.95F HX  97
$$

TXZ055-058-074-075-080-082-281900-
FAR WEST/SOUTHWEST MOUNTAINS/TRANS PECOS

CITY           SKY/WX    TMP DP  RH WIND       PRES   REMARKS
ALPINE         SUNNY     90  54  29 NE7       30.15F
DRYDEN           N/A     91  70  49 S10       29.97F HX  96
EL PASO        MOSUNNY   90  55  30 CALM      30.05S
FORT STOCKTON  SUNNY     95  58  28 VRB5      29.98F
GUADALUPE PASS SUNNY     89  57  33 W18       30.18R
MARFA          SUNNY     86  61  42 SE8       30.15S
PECOS          SUNNY     98  57  25 W6        29.94F HX  97
PRESIDIO       FAIR      95  57  28 MISG      29.99S
$$

TXZ014-016-019-021>030-083-281900
TEXAS TECH WEST TEXAS MESONET/TEXAS PANHANDLE/NORTHERN SOUTH PLAINS

CITY           SKY/WX    TMP DP  RH WIND       PRES   REMARKS
ABERNATHY 5ENE   N/A     92  62  35 S13       30.03S
AMARILLO 9NNE    N/A     93  65  39 N10       30.00S HX  95
AMARILLO 7SSE    N/A     91  65  42 S7        30.04S
AMHERST 1NE      N/A     92  60  33 S10       30.03S
BOOTLEG 11WNW    N/A     90  60  36 S6        30.08F
CANADIAN 6E      N/A    100  62  29 SW16      29.91F HX 101
CAPROCK CYN SP   N/A     94  62  33 S10       29.98S HX  95
CHILDRESS 2NNE   N/A     96  63  33 S12       29.93F HX  98
CLARENDON 2WSW   N/A     92  63  37 S12       29.99R
CLAUDE 12SW      N/A     91  65  41 SW7       30.03R
DIMMITT 2NE      N/A     89  64  44 S8        30.05S
FLOYDADA 2NNE    N/A     91  62  37 S10       30.02S
FRIONA 2NE       N/A     90  60  36 S8        30.06S
GOODLETT 3W      N/A     97  63  32 S14       29.91S HX  98
HART 3N          N/A     89  63  41 SW10      30.04S
HEREFORD 2NW     N/A     91  59  33 S9        30.03F
MCLEAN 1E        N/A     93  62  35 SW9       29.98S
MEMPHIS 1NE      N/A     97  63  32 S9        29.93S HX  98
MULESHOE 2SSW    N/A     92  59  32 S10       30.03F
OLTON 6S         N/A     91  60  34 S12       30.02F
PALO DURO SP     N/A     92  64  39 SW9       30.04R
PAMPA 2E         N/A     91  64  40 W6        30.01S
PLAINVIEW 1S     N/A     91  63  38 S9        30.01S
SILVERTON 7ESE   N/A     92  65  41 SW10      30.01S
TULIA 2ENE       N/A     91  65  42 SW10      30.03S
TURKEY 2WSW      N/A     95  63  33 S9        29.96S HX  96
UMBARGER 3NNE    N/A     90  64  42 SW9       30.05R
$$

TXZ033>036-039>041-045>048-281900
TEXAS TECH WEST TEXAS MESONET/SOUTH PLAINS

CITY           SKY/WX    TMP DP  RH WIND       PRES   REMARKS
AIKEN 3WSW       N/A     94  65  37 S13       30.03S HX  96
ANDREWS 2NE      N/A     96  56  26 SE9       30.00S
ANTON 6SSW       N/A     92  64  39 S9        30.02S
BROWNFIELD 2S    N/A     93  60  33 S7        30.01F
DENVR CTY 7WNW   N/A     94  55  26 SE9       30.03S
GAIL 2ESE        N/A     95  64  35 SE10      29.97F HX  97
LAMESA 2SE       N/A     96  64  34 SE12      30.00F HX  98
LEVELLAND 4S     N/A     92  60  33 S10       30.02F
LUBBOCK 3WNW     N/A     93  63  36 S8        30.02S
MORTON 1ENE      N/A     91  60  34 S9        30.04S
ODONNELL 1N      N/A     94  61  33 S9        30.01S
PLAINS 3N        N/A     93  60  33 S6        30.03S
RALLS 1SE        N/A     92  66  41 S9        30.02S HX  95
REESE CENTER     N/A     92  61  35 S12       30.02S
SEAGRAVES 1SW    N/A     94  60  31 SE8       30.01F
SEMINOLE 2NNE    N/A     94  58  29 SE9       30.01S
SLATON 2NE       N/A     92  64  39 S12       30.01S
SNYDER 3E        N/A     93  69  44 S12       29.98F HX  98
SUNDOWN 8SW      N/A     92  62  35 S7G22     30.03S
TAHOKA 3NNE      N/A     92  65  40 S10       30.01S
WOLFFORTH 6SSW   N/A     93  65  39 S9        30.02S
$$

TXZ031-032-036>038-042>044-281900-
TEXAS TECH WEST TEXAS MESONET/ROLLING PLAINS

CITY           SKY/WX    TMP DP  RH WIND       PRES   REMARKS
ASPERMONT 3NE    N/A     97  68  39 S8        29.94F HX 101
FLUVANNA 3WNW    N/A     91  67  45 SE9       29.99S
GRAHAM 5SSW      N/A     92  64  38 S8        30.00S
GUTHRIE 10WSW    N/A     97  65  34 S8        29.94S HX  99
HASKELL 1NW      N/A     94  64  35 S9        29.94S HX  96
JAYTON 1SSE      N/A     96  66  37 S7        29.95S HX  99
KNOX CITY 3NW    N/A     96  64  34 S12G28    29.93S HX  98
LK A HENRY 1NW   N/A     94  68  41 S9        29.96F HX  98
NORTHFIELD 1S    N/A     97  64  34 S7        29.94S HX  99
ODELL 4ENE       N/A     98  65  33 S17       29.92S HX 101
PADUCAH 10SW     N/A     98  64  32 S10       29.94S HX  99
POST 1NE         N/A     93  67  41 S8        29.98S HX  96
RRING SPRGS 3N   N/A     94  68  42 S8        29.98S HX  99
SEYMOUR 3NW      N/A     94  65  38 S10       29.92F HX  96
SPUR 1W          N/A     93  64  37 S8        29.96S HX  95
WEINERT 2NNE     N/A     96  68  39 S12       29.94S HX 101
WHITE RVR 6NE    N/A     93  66  40 S12       29.98S HX  96
$$

TXZ052-054-060>062-072-078-127-140-154-169-281900-
TEXAS TECH WEST TEXAS MESONET/PERMIAN BASIN/
CONCHO VALLEY/BIG COUNTRY/EDWARDS PLATEAU

CITY           SKY/WX    TMP DP  RH WIND       PRES   REMARKS
COYANOSA 2N      N/A     99  60  27 SE8       29.96R HX  99
JUNCTION 1SSW    N/A     93  69  45 S6        29.99F HX  98
MERTZON 3NNE     N/A     94  66  39 S8        29.99F HX  97
SAN ANGELO 7NW   N/A     94  62  33 S12       29.98S HX  95
STRLNG CT 4WSW   N/A     96  66  36 S14       29.99S HX  99
ST LAWRNCE 5SW   N/A     94  64  37 S13       29.99F HX  95
SWEETWATR 11SW   N/A     92  69  45 S13       30.01S HX  97
WALL 1E          N/A     94  64  36 SE8       29.98S HX  96
$$

TXZ055-058-074-075-080-082-281900-
TEXAS TECH WEST TEXAS MESONET/FAR WEST/SOUTHWEST MOUNTAINS/TRANS PECOS

CITY           SKY/WX    TMP DP  RH WIND       PRES   REMARKS
PRSMN GAP BBNP   N/A     96  62  32 NE6       29.99F HX  97
$$


USA.gov is the U.S. government's official web portal to all federal, state and local government web resources and services.